When you browse on this site, cookies collect data to enhance your experience and personalize the content and advertising you see.
Visit our Privacy Policy to learn more. By continuing to use the site, you agree to this use of cookies and data.
  • In Hungary
  • List of Countries
  • For 7 days
  • Water Temperature
  • Satellite Maps
  • Weather Map
  • News
  • Weather Widgets
  • user-avatar
    Login

    Hourly Weather Mitkino

    Today, 19 November, Monday

    Time Temperature Precipitation Wind Pressure Humidity
    00:00 -1°C° 0 mm 2 mps 754 mmHg 97%
    01:00 -1°C° 0.1 mm 2 mps 754 mmHg 97%
    02:00 -1°C° 0.1 mm 2 mps 754 mmHg 96%
    03:00 -1°C° 0 mm 2 mps 755 mmHg 97%
    04:00 -1°C° 0.2 mm 2 mps 755 mmHg 97%
    05:00 -1°C° 0.2 mm 2 mps 755 mmHg 96%
    06:00 -1°C° 0.2 mm 2 mps 755 mmHg 96%
    07:00 -1°C° 0.2 mm 2 mps 755 mmHg 96%
    08:00 -1°C° 0.2 mm 2 mps 756 mmHg 95%
    09:00 -1°C° 0 mm 2 mps 756 mmHg 94%
    10:00 0°C° 0.1 mm 3 mps 756 mmHg 93%
    11:00 0°C° 0.1 mm 3 mps 756 mmHg 91%
    12:00 0°C° 0.1 mm 3 mps 756 mmHg 90%
    13:00 0°C° 0.1 mm 3 mps 757 mmHg 90%
    14:00 0°C° 0.1 mm 3 mps 757 mmHg 90%
    15:00 -1°C° 0.1 mm 3 mps 757 mmHg 90%
    16:00 -1°C° 0.1 mm 3 mps 757 mmHg 91%
    17:00 -1°C° 0.1 mm 3 mps 757 mmHg 91%
    18:00 -1°C° 0.1 mm 3 mps 757 mmHg 92%
    19:00 -2°C° 0.1 mm 3 mps 757 mmHg 92%
    20:00 -2°C° 0.1 mm 3 mps 758 mmHg 91%
    21:00 -2°C° 0.1 mm 3 mps 758 mmHg 91%
    22:00 -2°C° 0 mm 3 mps 758 mmHg 90%
    23:00 -2°C° 0 mm 3 mps 758 mmHg 89%

    Tomorrow, 20 November, Tuesday

    Time Temperature Precipitation Wind Pressure Humidity
    00:00 -4°C° 0 mm 3 mps 758 mmHg 88%
    01:00 -4°C° 0 mm 3 mps 758 mmHg 89%
    02:00 -3°C° 0 mm 2 mps 758 mmHg 89%
    03:00 -4°C° 0 mm 2 mps 758 mmHg 89%
    04:00 -4°C° 0 mm 2 mps 758 mmHg 89%
    05:00 -4°C° 0 mm 2 mps 757 mmHg 90%
    06:00 -4°C° 0 mm 2 mps 757 mmHg 90%
    07:00 -4°C° 0 mm 2 mps 757 mmHg 89%
    08:00 -4°C° 0 mm 2 mps 757 mmHg 88%
    09:00 -4°C° 0 mm 2 mps 757 mmHg 86%
    10:00 -4°C° 0 mm 2 mps 757 mmHg 84%
    11:00 -3°C° 0 mm 2 mps 756 mmHg 82%
    12:00 -3°C° 0 mm 2 mps 756 mmHg 79%
    13:00 -3°C° 0 mm 2 mps 755 mmHg 80%
    14:00 -3°C° 0 mm 2 mps 755 mmHg 80%
    15:00 -3°C° 0 mm 2 mps 754 mmHg 81%
    16:00 -5°C° 0.1 mm 3 mps 754 mmHg 82%
    17:00 -5°C° 0.1 mm 3 mps 753 mmHg 84%
    18:00 -5°C° 0.1 mm 3 mps 753 mmHg 85%
    19:00 -5°C° 0.1 mm 3 mps 752 mmHg 86%
    20:00 -5°C° 0.1 mm 4 mps 751 mmHg 86%
    21:00 -5°C° 0.1 mm 4 mps 751 mmHg 87%
    22:00 -5°C° 0 mm 4 mps 750 mmHg 86%
    23:00 -5°C° 0 mm 4 mps 749 mmHg 84%

    Day after tomorrow, 21 November, Wednesday

    Time Temperature Precipitation Wind Pressure Humidity
    00:00 -5°C° 0 mm 4 mps 749 mmHg 83%
    01:00 -5°C° 0 mm 4 mps 748 mmHg 82%
    02:00 -5°C° 0 mm 4 mps 748 mmHg 82%
    03:00 -5°C° 0 mm 4 mps 747 mmHg 82%
    04:00 -5°C° 0.2 mm 4 mps 747 mmHg 84%
    05:00 -4°C° 0.2 mm 4 mps 746 mmHg 86%
    06:00 -5°C° 0.2 mm 5 mps 746 mmHg 88%
    07:00 -5°C° 0.1 mm 5 mps 746 mmHg 86%
    08:00 -5°C° 0.1 mm 5 mps 746 mmHg 85%
    09:00 -4°C° 0.1 mm 5 mps 746 mmHg 83%
    10:00 -4°C° 0 mm 6 mps 746 mmHg 79%
    11:00 -4°C° 0 mm 6 mps 746 mmHg 75%
    12:00 -4°C° 0 mm 7 mps 746 mmHg 70%
    13:00 -5°C° 0 mm 6 mps 746 mmHg 69%
    14:00 -6°C° 0 mm 6 mps 747 mmHg 68%
    15:00 -7°C° 0 mm 5 mps 747 mmHg 66%
    16:00 -7°C° 0 mm 5 mps 747 mmHg 68%
    17:00 -7°C° 0 mm 5 mps 747 mmHg 70%
    18:00 -8°C° 0 mm 5 mps 747 mmHg 72%
    19:00 -8°C° 0 mm 5 mps 747 mmHg 74%
    20:00 -8°C° 0 mm 5 mps 747 mmHg 76%
    21:00 -8°C° 0 mm 5 mps 747 mmHg 78%
    22:00 -8°C° 0 mm 4 mps 747 mmHg 80%
    23:00 -8°C° 0 mm 4 mps 747 mmHg 82%

    22 November, Thursday

    Time Temperature Precipitation Wind Pressure Humidity
    00:00 -8°C° 0 mm 4 mps 747 mmHg 85%
    01:00 -8°C° 0 mm 4 mps 746 mmHg 86%
    02:00 -8°C° 0 mm 4 mps 746 mmHg 87%
    03:00 -8°C° 0 mm 4 mps 745 mmHg 88%
    04:00 -8°C° 0 mm 4 mps 744 mmHg 87%
    05:00 -7°C° 0 mm 5 mps 743 mmHg 85%
    06:00 -7°C° 0 mm 5 mps 743 mmHg 84%
    07:00 -8°C° 0.3 mm 6 mps 742 mmHg 84%
    08:00 -6°C° 0.3 mm 6 mps 741 mmHg 85%
    09:00 -7°C° 0.3 mm 7 mps 740 mmHg 86%
    10:00 -7°C° 0.3 mm 7 mps 739 mmHg 84%
    11:00 -6°C° 0.3 mm 7 mps 739 mmHg 83%
    12:00 -6°C° 0.3 mm 7 mps 738 mmHg 82%
    13:00 -5°C° 0.6 mm 6 mps 738 mmHg 84%
    14:00 -5°C° 0.6 mm 6 mps 738 mmHg 85%
    15:00 -5°C° 0.6 mm 6 mps 738 mmHg 87%
    16:00 -6°C° 0.2 mm 5 mps 738 mmHg 84%
    17:00 -7°C° 0.2 mm 4 mps 738 mmHg 81%
    18:00 -7°C° 0.2 mm 3 mps 739 mmHg 78%
    19:00 -7°C° 0 mm 3 mps 739 mmHg 81%
    20:00 -7°C° 0 mm 2 mps 740 mmHg 84%
    21:00 -8°C° 0 mm 2 mps 740 mmHg 87%
    22:00 -8°C° 0 mm 2 mps 741 mmHg 87%
    23:00 -8°C° 0 mm 2 mps 742 mmHg 87%

    23 November, Friday

    Time Temperature Precipitation Wind Pressure Humidity
    00:00 -8°C° 0 mm 2 mps 742 mmHg 88%
    01:00 -10°C° 0 mm 3 mps 743 mmHg 88%
    02:00 -10°C° 0 mm 3 mps 744 mmHg 88%
    03:00 -10°C° 0 mm 3 mps 745 mmHg 89%
    04:00 -11°C° 0 mm 4 mps 745 mmHg 88%
    05:00 -11°C° 0 mm 4 mps 746 mmHg 87%
    06:00 -11°C° 0 mm 4 mps 747 mmHg 86%
    07:00 -11°C° 0 mm 4 mps 748 mmHg 84%
    08:00 -11°C° 0 mm 5 mps 749 mmHg 82%
    09:00 -11°C° 0 mm 5 mps 749 mmHg 80%
    10:00 -11°C° 0 mm 5 mps 750 mmHg 78%
    11:00 -11°C° 0 mm 5 mps 751 mmHg 76%
    12:00 -11°C° 0 mm 5 mps 751 mmHg 74%
    13:00 -11°C° 0 mm 5 mps 752 mmHg 76%
    14:00 -10°C° 0 mm 4 mps 752 mmHg 79%
    15:00 -11°C° 0 mm 4 mps 752 mmHg 81%
    16:00 -11°C° 0 mm 4 mps 752 mmHg 82%
    17:00 -11°C° 0 mm 4 mps 752 mmHg 84%
    18:00 -11°C° 0 mm 4 mps 752 mmHg 86%
    19:00 -11°C° 0 mm 4 mps 752 mmHg 85%
    20:00 -11°C° 0 mm 4 mps 752 mmHg 85%
    21:00 -11°C° 0 mm 4 mps 752 mmHg 85%
    22:00 -11°C° 0 mm 5 mps 751 mmHg 84%
    23:00 -11°C° 0 mm 5 mps 751 mmHg 84%

    24 November, Saturday

    Time Temperature Precipitation Wind Pressure Humidity
    00:00 -11°C° 0 mm 5 mps 750 mmHg 84%
    01:00 -11°C° 0 mm 5 mps 750 mmHg 84%
    02:00 -11°C° 0 mm 5 mps 749 mmHg 84%
    03:00 -11°C° 0 mm 6 mps 749 mmHg 83%
    04:00 -10°C° 0 mm 6 mps 748 mmHg 84%
    05:00 -10°C° 0 mm 6 mps 747 mmHg 84%
    06:00 -9°C° 0 mm 6 mps 747 mmHg 85%
    07:00 -9°C° 0.1 mm 6 mps 746 mmHg 84%
    08:00 -8°C° 0.1 mm 7 mps 746 mmHg 83%
    09:00 -7°C° 0.1 mm 7 mps 745 mmHg 82%
    10:00 -7°C° 0.1 mm 7 mps 745 mmHg 81%
    11:00 -6°C° 0.1 mm 7 mps 745 mmHg 80%
    12:00 -6°C° 0.1 mm 7 mps 744 mmHg 79%
    13:00 -6°C° 0 mm 7 mps 744 mmHg 79%
    14:00 -4°C° 0 mm 7 mps 744 mmHg 79%
    15:00 -4°C° 0 mm 6 mps 745 mmHg 80%
    16:00 -4°C° 0.1 mm 6 mps 745 mmHg 81%
    17:00 -4°C° 0.1 mm 6 mps 745 mmHg 83%
    18:00 -4°C° 0.1 mm 6 mps 746 mmHg 85%
    19:00 -4°C° 0.1 mm 5 mps 746 mmHg 86%
    20:00 -4°C° 0.1 mm 5 mps 746 mmHg 86%
    21:00 -4°C° 0.1 mm 5 mps 746 mmHg 87%
    22:00 -4°C° 0.1 mm 5 mps 746 mmHg 87%
    23:00 -5°C° 0.1 mm 5 mps 746 mmHg 88%
    Show more